Regional Weather Roundup
Issued by NWS

Home | Current Version | Previous Version | Text Only | Print | Product List | Glossary Off
Versions: 1 2 3 4 5 6 7 8 9 10 11 12 13 14 15 16 17 18 19 20 21 22 23 24 25 26 27 28 29 30 31 32 33 34 35 36 37 38 39 40 41 42 43 44 45 46 47 48 49 50

829
ASUS44 KLIX 020005
RWRLA
LOUISIANA WEATHER ROUNDUP
NATIONAL WEATHER SERVICE NEW ORLEANS LA
700 PM CDT WED OCT 01 2014

NOTE: "FAIR" INDICATES FEW OR NO CLOUDS BELOW 12,000 FEET WITH NO
      SIGNIFICANT WEATHER AND/OR OBSTRUCTIONS TO VISIBILITY.
      SKY/WX - SKY CONDITION AND SIGNIFICANT WEATHER.
      TMP - AIR TEMPERATURE.    DP   - DEWPOINT TEMPERATURE.
      RH  - RELATIVE HUMIDITY.  PRES - PRESSURE.
      HX  - HEAT INDEX.         WCI  - WIND CHILL INDEX.

*  THESE STATIONS ARE NOT NWS OR FAA STATIONS AND ARE NOT UNDER
   NWS QUALITY CONTROL.

LAZ040-048-061>063-065-066-069-020100-
SOUTHEAST LOUISIANA

CITY           SKY/WX    TMP DP  RH WIND       PRES   REMARKS
N.O. AUDUBON     N/A     82  78  86 MISG        N/A
6HR MIN TEMP:  81; 6HR MAX TEMP:  85;

N.O. INTL ARPT CLOUDY    81  74  79 SE10      29.90R
6HR MIN TEMP:  80; 6HR MAX TEMP:  85;

N.O. LAKEFRONT MOCLDY    81  74  79 SE13      29.90S
6HR MIN TEMP:  81; 6HR MAX TEMP:  84; 6HR PCP: TRACE;

N.O. DOWNTOWN* CLOUDY    81  72  74 S6        29.91S
6HR MIN TEMP:  79; 6HR MAX TEMP:  84;

SLIDELL        MOCLDY    79  73  82 E3        29.91R
6HR MIN TEMP:  79; 6HR MAX TEMP:  84;

BATON ROUGE    MOCLDY    78  73  84 E8        29.88S
6HR MIN TEMP:  78; 6HR MAX TEMP:  87;

BOOTHVILLE     MOCLDY    79  76  90 SE7       29.92R
6HR MIN TEMP:  78; 6HR MAX TEMP:  82; 6HR PCP: TRACE;

BELLE CHASSE   CLOUDY    81  74  79 SE8       29.90R
6HR MIN TEMP:  79; 6HR MAX TEMP:  85;

BOGALUSA*      FAIR      80  72  75 S5        29.93R
6HR MIN TEMP:  80; 6HR MAX TEMP:  86;

GALLIANO*      NOT AVBL
NEW ROADS*     CLOUDY    81  73  77 SE7       29.88R
6HR MIN TEMP:  81; 6HR MAX TEMP:  86;

GONZALES*      FAIR      77  77 100 CALM      29.88R
6HR MIN TEMP:  76; 6HR MAX TEMP:  85; 6HR PCP:  0.16;

HAMMOND*       MOCLDY    79  72  78 SE6       29.91F
HOUMA*         MOCLDY   N/A N/A N/A SE7       29.89R
PORT FOURCHON* MOCLDY    81  75  83 CALM      29.93R

$$

LAZ041-044-053-054-020100-
SOUTHWEST LOUISIANA

CITY           SKY/WX    TMP DP  RH WIND       PRES   REMARKS
LAKE CHARLES   MOCLDY    82  76  81 S6        29.84R
6HR MIN TEMP:  83; 6HR MAX TEMP:  89;

LAFAYETTE      PTCLDY    81  77  88 S6        29.86R
6HR MIN TEMP:  79; 6HR MAX TEMP:  88; 6HR PCP:  0.06;

PATTERSON      CLEAR     79  75  89 SE3       29.91S
6HR MIN TEMP:  79; 6HR MAX TEMP:  88;

SALT POINT       N/A     81  76  84 CALM      29.87R
6HR MIN TEMP:  81; 6HR MAX TEMP:  86; 6HR PCP:  0.02;

NEW IBERIA     CLEAR     81  76  84 S6        29.87R
6HR MIN TEMP:  81; 6HR MAX TEMP:  87;

CHENAULT AIRPK PTCLDY    82  75  78 S8        29.84S

$$

LAZ027-028-020100-
CENTRAL LOUISIANA

CITY           SKY/WX    TMP DP  RH WIND       PRES   REMARKS
FORT POLK      PTCLDY    80  73  78 SE8       29.83S
6HR MIN TEMP:  80; 6HR MAX TEMP:  88;

ALEXANDRIA INT PTCLDY    83  73  72 S6        29.83R
6HR MIN TEMP:  83; 6HR MAX TEMP:  90;

ALEXANDRIA     CLEAR     81  73  76 SE3       29.85R
6HR MIN TEMP:  81; 6HR MAX TEMP:  88;


$$

LAZ001-002-020100-
NORTHWEST LOUISIANA

CITY           SKY/WX    TMP DP  RH WIND       PRES   REMARKS
SHREVEPORT     PTCLDY    82  74  76 S8        29.80R
6HR MIN TEMP:  78; 6HR MAX TEMP:  89; 6HR PCP:  0.02;

BARKSDALE AFB  CLEAR     80  73  78 SE6       29.81R
6HR MIN TEMP:  77; 6HR MAX TEMP:  89; 6HR PCP:  0.14;

DTN SHREVEPORT CLEAR     81  73  76 SE5       29.80S
6HR MIN TEMP:  74; 6HR MAX TEMP:  88; 6HR PCP:  0.57;


$$

LAZ014-016-020100-
NORTHEAST LOUISIANA

CITY           SKY/WX    TMP DP  RH WIND       PRES   REMARKS
MONROE         PTCLDY    82  71  69 S3        29.85R
6HR MIN TEMP:  82; 6HR MAX TEMP:  88;

TALLULAH       PTCLDY    84  68  58 S8        29.86R
6HR MIN TEMP:  84; 6HR MAX TEMP:  92;


$$




USA.gov is the U.S. government's official web portal to all federal, state and local government web resources and services.